• In Österreich
  • Länderverzeichnis
  • Für 7 Tage
  • Wassertemperatur
  • Satellitenkarten
  • Wetterkarte
  • News
  • Widgets
  • user-avatar
    Anmelden

    Stündliche Wetter Limanowa

    Heute, 19 Juli, Donnerstag

    Zeit Temperatur Niederschläge Wind Luftdruck Luftfeuchtigkeit
    00:00 +18°C° 0,2 mm 4 m/S 718 mmHg 97%
    01:00 +18°C° 0 mm 3 m/S 718 mmHg 98%
    02:00 +18°C° 0,2 mm 3 m/S 718 mmHg 98%
    03:00 +18°C° 0,2 mm 3 m/S 718 mmHg 97%
    04:00 +18°C° 0,2 mm 3 m/S 718 mmHg 97%
    05:00 +18°C° 0,2 mm 3 m/S 719 mmHg 96%
    06:00 +18°C° 0,2 mm 3 m/S 719 mmHg 96%
    07:00 +18°C° 0 mm 3 m/S 719 mmHg 95%
    08:00 +19°C° 0,3 mm 3 m/S 719 mmHg 94%
    09:00 +19°C° 0,3 mm 3 m/S 719 mmHg 93%
    10:00 +19°C° 0,3 mm 3 m/S 720 mmHg 92%
    11:00 +19°C° 0,1 mm 4 m/S 720 mmHg 90%
    12:00 +20°C° 0,1 mm 4 m/S 720 mmHg 89%
    13:00 +20°C° 0,1 mm 4 m/S 720 mmHg 87%
    14:00 +20°C° 0,1 mm 4 m/S 720 mmHg 86%
    15:00 +20°C° 0,1 mm 4 m/S 720 mmHg 86%
    16:00 +20°C° 0,1 mm 4 m/S 720 mmHg 86%
    17:00 +20°C° 0,1 mm 3 m/S 720 mmHg 88%
    18:00 +20°C° 0,1 mm 3 m/S 720 mmHg 90%
    19:00 +19°C° 0,1 mm 3 m/S 720 mmHg 92%
    20:00 +18°C° 0 mm 3 m/S 720 mmHg 93%
    21:00 +18°C° 0 mm 3 m/S 720 mmHg 95%
    22:00 +17°C° 0 mm 3 m/S 720 mmHg 97%
    23:00 +17°C° 0,1 mm 3 m/S 720 mmHg 97%

    Morgen, 20 Juli, Freitag

    Zeit Temperatur Niederschläge Wind Luftdruck Luftfeuchtigkeit
    00:00 +17°C° 0,1 mm 2 m/S 720 mmHg 97%
    01:00 +17°C° 0,1 mm 2 m/S 720 mmHg 97%
    02:00 +17°C° 0,2 mm 2 m/S 720 mmHg 97%
    03:00 +17°C° 0,2 mm 2 m/S 720 mmHg 97%
    04:00 +17°C° 0,2 mm 2 m/S 720 mmHg 97%
    05:00 +17°C° 0,4 mm 3 m/S 720 mmHg 97%
    06:00 +17°C° 0,4 mm 3 m/S 720 mmHg 96%
    07:00 +17°C° 0,4 mm 3 m/S 720 mmHg 96%
    08:00 +18°C° 0,2 mm 3 m/S 721 mmHg 94%
    09:00 +18°C° 0,2 mm 3 m/S 721 mmHg 92%
    10:00 +18°C° 0,2 mm 3 m/S 721 mmHg 91%
    11:00 +20°C° 0,1 mm 3 m/S 721 mmHg 83%
    12:00 +22°C° 0,1 mm 4 m/S 721 mmHg 75%
    13:00 +23°C° 0,1 mm 4 m/S 721 mmHg 67%
    14:00 +23°C° 0,2 mm 4 m/S 721 mmHg 66%
    15:00 +25°C° 0,2 mm 4 m/S 721 mmHg 66%
    16:00 +25°C° 0,2 mm 4 m/S 721 mmHg 66%
    17:00 +22°C° 0,2 mm 3 m/S 721 mmHg 72%
    18:00 +21°C° 0,2 mm 3 m/S 721 mmHg 78%
    19:00 +20°C° 0,2 mm 2 m/S 720 mmHg 84%
    20:00 +19°C° 0 mm 2 m/S 721 mmHg 87%
    21:00 +17°C° 0 mm 2 m/S 721 mmHg 89%
    22:00 +16°C° 0 mm 1 m/S 721 mmHg 91%
    23:00 +16°C° 0 mm 1 m/S 721 mmHg 92%

    übermorgen, 21 Juli, Samstag

    Zeit Temperatur Niederschläge Wind Luftdruck Luftfeuchtigkeit
    00:00 +15°C° 0 mm 1 m/S 721 mmHg 92%
    01:00 +15°C° 0 mm 1 m/S 721 mmHg 93%
    02:00 +15°C° 0 mm 1 m/S 721 mmHg 93%
    03:00 +14°C° 0 mm 1 m/S 721 mmHg 93%
    04:00 +14°C° 0 mm 1 m/S 721 mmHg 93%
    05:00 +16°C° 0 mm 1 m/S 721 mmHg 88%
    06:00 +18°C° 0 mm 1 m/S 721 mmHg 83%
    07:00 +20°C° 0 mm 1 m/S 721 mmHg 79%
    08:00 +21°C° 0 mm 1 m/S 721 mmHg 72%
    09:00 +23°C° 0 mm 1 m/S 721 mmHg 65%
    10:00 +25°C° 0 mm 1 m/S 722 mmHg 58%
    11:00 +25°C° 0 mm 1 m/S 721 mmHg 55%
    12:00 +26°C° 0 mm 2 m/S 721 mmHg 51%
    13:00 +27°C° 0 mm 2 m/S 721 mmHg 48%
    14:00 +26°C° 0 mm 2 m/S 721 mmHg 50%
    15:00 +26°C° 0 mm 2 m/S 721 mmHg 51%
    16:00 +26°C° 0 mm 2 m/S 721 mmHg 53%
    17:00 +24°C° 0 mm 2 m/S 720 mmHg 60%
    18:00 +23°C° 0 mm 1 m/S 720 mmHg 67%
    19:00 +21°C° 0 mm 1 m/S 720 mmHg 75%
    20:00 +20°C° 0 mm 1 m/S 720 mmHg 78%
    21:00 +19°C° 0 mm 1 m/S 720 mmHg 81%
    22:00 +16°C° 0 mm 1 m/S 720 mmHg 85%
    23:00 +15°C° 0 mm 0 m/S 720 mmHg 86%

    22 Juli, Sonntag

    Zeit Temperatur Niederschläge Wind Luftdruck Luftfeuchtigkeit
    00:00 +15°C° 0 mm 0 m/S 720 mmHg 87%
    01:00 +14°C° 0 mm 0 m/S 720 mmHg 88%
    02:00 +14°C° 0 mm 0 m/S 720 mmHg 89%
    03:00 +14°C° 0 mm 0 m/S 719 mmHg 89%
    04:00 +14°C° 0 mm 0 m/S 719 mmHg 90%
    05:00 +15°C° 0 mm 0 m/S 719 mmHg 84%
    06:00 +17°C° 0 mm 0 m/S 719 mmHg 79%
    07:00 +19°C° 0 mm 0 m/S 720 mmHg 73%
    08:00 +22°C° 0,1 mm 1 m/S 720 mmHg 70%
    09:00 +23°C° 0,1 mm 2 m/S 719 mmHg 66%
    10:00 +24°C° 0,1 mm 2 m/S 719 mmHg 63%
    11:00 +25°C° 0,4 mm 2 m/S 719 mmHg 64%
    12:00 +25°C° 0,4 mm 2 m/S 719 mmHg 65%
    13:00 +25°C° 0,4 mm 2 m/S 719 mmHg 66%
    14:00 +25°C° 0,5 mm 2 m/S 719 mmHg 67%
    15:00 +25°C° 0,5 mm 2 m/S 719 mmHg 67%
    16:00 +25°C° 0,5 mm 2 m/S 718 mmHg 67%
    17:00 +23°C° 0,3 mm 2 m/S 718 mmHg 71%
    18:00 +22°C° 0,3 mm 1 m/S 718 mmHg 75%
    19:00 +21°C° 0,3 mm 1 m/S 718 mmHg 78%
    20:00 +20°C° 0 mm 1 m/S 718 mmHg 80%
    21:00 +19°C° 0 mm 1 m/S 718 mmHg 82%
    22:00 +18°C° 0 mm 1 m/S 718 mmHg 83%
    23:00 +18°C° 0 mm 1 m/S 718 mmHg 85%

    23 Juli, Montag

    Zeit Temperatur Niederschläge Wind Luftdruck Luftfeuchtigkeit
    00:00 +16°C° 0 mm 1 m/S 718 mmHg 87%
    01:00 +15°C° 0 mm 1 m/S 718 mmHg 89%
    02:00 +15°C° 0 mm 1 m/S 718 mmHg 90%
    03:00 +15°C° 0 mm 1 m/S 718 mmHg 91%
    04:00 +15°C° 0 mm 1 m/S 718 mmHg 92%
    05:00 +16°C° 0 mm 1 m/S 718 mmHg 89%
    06:00 +18°C° 0 mm 2 m/S 719 mmHg 86%
    07:00 +19°C° 0 mm 2 m/S 719 mmHg 83%
    08:00 +20°C° 0,1 mm 3 m/S 719 mmHg 77%
    09:00 +22°C° 0,1 mm 3 m/S 719 mmHg 70%
    10:00 +23°C° 0,1 mm 4 m/S 720 mmHg 64%
    11:00 +25°C° 0,3 mm 4 m/S 719 mmHg 64%
    12:00 +25°C° 0,3 mm 4 m/S 719 mmHg 65%
    13:00 +25°C° 0,3 mm 4 m/S 719 mmHg 65%
    14:00 +25°C° 0,7 mm 4 m/S 719 mmHg 68%
    15:00 +23°C° 0,7 mm 4 m/S 719 mmHg 70%
    16:00 +24°C° 0,7 mm 3 m/S 719 mmHg 73%
    17:00 +22°C° 0,4 mm 3 m/S 720 mmHg 77%
    18:00 +21°C° 0,4 mm 2 m/S 720 mmHg 80%
    19:00 +20°C° 0,4 mm 2 m/S 720 mmHg 84%
    20:00 +19°C° 0 mm 2 m/S 720 mmHg 86%
    21:00 +18°C° 0 mm 2 m/S 720 mmHg 88%
    22:00 +17°C° 0 mm 2 m/S 721 mmHg 89%
    23:00 +16°C° 0 mm 1 m/S 720 mmHg 91%

    24 Juli, Dienstag

    Zeit Temperatur Niederschläge Wind Luftdruck Luftfeuchtigkeit
    00:00 +16°C° 0 mm 1 m/S 720 mmHg 92%
    01:00 +15°C° 0 mm 1 m/S 720 mmHg 93%
    02:00 +15°C° 0 mm 1 m/S 721 mmHg 94%
    03:00 +15°C° 0 mm 1 m/S 721 mmHg 94%
    04:00 +15°C° 0 mm 1 m/S 721 mmHg 95%
    05:00 +16°C° 0 mm 1 m/S 721 mmHg 91%
    06:00 +19°C° 0 mm 1 m/S 722 mmHg 88%
    07:00 +19°C° 0 mm 2 m/S 722 mmHg 85%
    08:00 +21°C° 0 mm 2 m/S 722 mmHg 78%
    09:00 +23°C° 0 mm 2 m/S 722 mmHg 71%
    10:00 +25°C° 0 mm 3 m/S 722 mmHg 63%
    11:00 +25°C° 0,1 mm 3 m/S 722 mmHg 61%
    12:00 +26°C° 0,1 mm 3 m/S 722 mmHg 59%
    13:00 +26°C° 0,1 mm 3 m/S 722 mmHg 57%
    14:00 +26°C° 0,1 mm 3 m/S 722 mmHg 59%
    15:00 +26°C° 0,1 mm 3 m/S 722 mmHg 61%
    16:00 +26°C° 0,1 mm 3 m/S 722 mmHg 63%
    17:00 +24°C° 0 mm 2 m/S 722 mmHg 68%
    18:00 +23°C° 0 mm 2 m/S 722 mmHg 74%
    19:00 +22°C° 0 mm 1 m/S 722 mmHg 79%
    20:00 +21°C° 0 mm 1 m/S 722 mmHg 82%
    21:00 +19°C° 0 mm 1 m/S 722 mmHg 84%
    22:00 +16°C° 0 mm 0 m/S 722 mmHg 86%
    23:00 +16°C° 0 mm 0 m/S 722 mmHg 88%
    Mehr zeigen